Wind_Speed
27 27 27 28 28 28 28 29 30 31 32 34 34 35 35 34 34 35 34 32 32 32 32 31 30 28 27 25 24 23 22 21 20 19 18 17 17 17 17 17 16 15 15
27 27 27 27 26 26 26 26 27 29 30 32 34 35 35 36 36 35 36 36 35 34 34 34 34 32 31 30 28 27 26 25 24 22 21 20 19 19 19 18 18 18 17
26 26 25 24 24 24 24 24 25 26 28 30 31 32 33 34 35 35 37 38 38 36 35 35 35 34 34 34 32 30 30 28 26 26 25 23 22 21 21 21 21 20 19
25 24 23 22 22 21 21 22 23 25 26 28 29 30 31 32 32 33 34 35 36 36 35 35 35 35 35 35 35 34 32 30 29 28 28 27 26 25 24 24 23 23 22
23 23 22 20 20 20 20 21 22 23 25 27 28 29 30 29 31 31 31 32 33 35 35 34 34 34 33 34 35 36 35 33 31 30 30 29 28 27 27 26 25 25 25
22 21 20 19 19 19 20 21 21 23 24 25 26 27 28 29 29 29 29 29 29 29 30 31 31 33 34 34 36 36 36 36 35 33 32 31 30 30 29 29 28 28 28
22 20 20 19 19 19 20 21 21 23 24 26 26 26 27 27 28 28 28 28 28 27 27 27 29 30 32 33 35 36 37 37 36 34 34 33 31 31 30 31 31 31 30
22 21 21 21 21 21 21 22 22 23 24 26 26 26 26 26 27 27 27 27 27 27 26 26 26 27 28 29 31 34 35 36 35 35 34 34 33 32 32 31 32 32 32
24 24 23 23 23 23 23 23 23 24 24 26 27 27 27 26 26 26 27 26 26 26 25 24 24 25 26 27 27 29 32 34 35 36 35 35 33 32 32 32 32 33 34
26 26 26 26 26 26 26 25 25 25 26 26 27 28 28 28 27 25 26 26 25 25 25 24 24 24 24 25 27 27 29 31 32 34 35 34 34 33 33 32 33 34 35
29 29 29 30 30 30 29 28 28 27 27 27 28 28 29 29 28 26 24 26 26 25 25 25 24 24 24 24 24 25 27 29 31 32 34 34 33 33 33 32 33 34 35
31 32 32 33 33 32 32 31 30 30 29 28 28 28 29 29 28 27 24 24 26 27 27 26 26 26 25 25 24 24 25 26 27 29 31 32 33 33 33 33 33 34 35
34 35 35 35 35 34 34 33 32 32 30 30 29 29 28 28 28 27 26 25 26 27 28 28 28 27 27 26 25 25 24 24 25 27 28 30 31 31 33 32 32 32 32
37 38 37 38 37 37 36 35 34 33 32 31 31 30 29 28 28 27 26 26 25 26 28 29 29 28 28 26 26 25 25 25 25 25 26 28 29 30 31 31 30 30 30
41 41 40 40 39 39 38 37 35 34 33 32 31 30 29 28 28 27 27 26 26 26 26 28 29 29 28 26 26 25 25 25 25 25 26 27 28 29 29 29 28 28 28
46 45 44 42 41 41 40 39 37 36 34 33 32 31 29 28 28 27 27 26 26 25 25 26 28 29 29 27 26 26 26 26 25 25 26 27 27 28 29 29 28 28 27
51 50 48 46 43 42 42 40 39 37 36 34 33 32 30 29 29 28 27 27 26 26 25 25 26 27 27 27 27 26 26 26 25 25 25 26 27 27 28 29 30 28 27
57 54 52 49 47 45 44 42 41 39 37 35 34 32 31 30 29 29 27 26 26 26 25 24 25 26 26 27 26 25 25 25 25 24 24 24 25 26 26 27 28 28 28
61 59 57 54 52 49 47 45 43 41 38 37 35 33 32 31 30 29 28 26 26 25 25 24 24 25 26 26 26 25 25 24 24 25 24 24 25 24 25 25 25 26 27
66 64 62 59 56 53 50 48 46 43 41 39 37 35 33 31 30 29 28 27 26 25 24 24 24 24 25 25 26 25 24 24 24 24 24 24 24 24 24 24 24 24 25
73 70 67 65 61 57 55 52 49 47 44 41 39 37 35 32 31 30 29 27 26 25 24 24 24 24 25 24 24 24 24 24 24 24 24 24 25 24 24 23 22 21 22
78 77 75 72 68 65 62 58 54 51 48 45 43 39 36 34 32 31 30 28 27 26 24 24 23 24 25 25 24 23 23 23 23 24 24 24 23 22 21 20 19 18 19
75 76 76 76 73 70 66 62 58 55 51 47 43 41 38 35 33 32 31 29 28 26 25 24 24 24 24 24 23 22 22 23 23 23 23 22 22 20 19 18 17 17 17
56 61 65 68 69 68 67 65 60 56 53 49 44 41 38 35 33 33 32 30 28 27 25 24 23 22 23 24 23 23 24 23 23 22 21 20 19 18 17 16 16 15 15
37 41 45 50 53 56 58 58 57 55 53 49 44 41 39 36 34 33 32 30 27 26 24 24 23 23 23 23 22 21 22 22 21 20 19 18 17 16 15 14 13 13 12
29 31 32 34 38 42 45 48 50 51 50 47 43 40 38 36 34 33 32 29 27 25 23 23 23 22 22 22 22 21 20 20 19 18 16 16 15 14 13 12 11 10 10
Wind_Direction
293 291 290 288 287 287 287 286 284 281 279 277 276 272 270 270 271 271 271 271 270 268 267 266 267 267 264 262 259 257 257 257 257 258 257 258 256 252 253 252 251 250 249
292 291 290 289 289 290 292 292 290 288 285 283 282 281 278 274 272 269 268 267 267 268 268 268 266 265 265 263 261 257 255 256 256 256 256 255 256 254 254 254 253 252 252
291 291 290 290 290 290 292 294 294 293 290 288 286 285 283 280 277 271 269 267 268 267 268 267 265 265 266 263 259 257 255 255 255 255 255 254 255 256 255 255 254 253 253
290 289 289 290 291 292 294 296 297 297 295 293 291 289 287 283 282 277 274 272 269 265 264 264 264 265 266 262 257 254 254 254 254 253 254 255 256 255 256 256 255 253 253
287 286 286 287 289 292 296 299 301 301 301 299 296 294 292 288 286 282 281 279 274 267 263 263 262 264 264 260 254 251 252 252 253 254 254 254 255 255 255 256 255 253 253
283 282 283 285 289 294 297 300 303 305 306 304 302 300 297 293 288 287 285 283 278 274 269 264 263 262 263 260 254 251 252 252 252 253 254 254 254 254 255 255 254 253 252
279 280 282 286 289 293 297 301 305 307 308 308 307 306 303 297 291 286 283 281 277 274 273 267 264 265 263 259 254 251 252 252 251 252 253 253 252 253 255 255 254 253 252
275 276 280 284 288 292 296 299 303 307 309 310 309 309 307 302 295 289 284 280 274 272 271 269 264 265 263 257 253 251 252 251 250 251 252 253 252 252 254 255 253 252 251
273 274 278 282 286 289 293 296 301 304 308 310 311 311 310 307 299 293 286 280 274 270 268 268 264 262 261 258 254 253 252 251 250 250 252 251 251 252 253 254 253 252 251
272 275 278 282 286 288 291 294 298 301 304 307 309 311 311 309 305 297 288 281 274 269 266 265 263 262 260 262 258 254 251 250 249 250 250 250 251 251 252 253 253 252 251
275 276 279 282 285 286 289 291 294 297 300 303 305 307 309 309 307 302 291 280 274 269 265 263 261 260 260 262 258 256 253 250 250 251 251 251 251 251 252 253 254 254 252
277 277 280 281 283 284 286 288 290 292 295 298 301 304 306 307 306 303 296 284 274 268 264 261 261 260 261 260 257 256 253 251 250 250 250 251 252 251 251 253 256 254 253
278 278 280 281 282 282 283 284 286 288 291 294 297 299 303 305 305 303 297 289 279 270 265 261 260 261 262 261 260 258 255 252 251 252 252 253 252 251 251 254 255 255 254
278 278 279 280 280 280 281 281 282 283 286 289 292 294 298 302 303 302 298 292 284 275 268 263 261 261 261 261 260 259 256 254 254 254 254 253 253 252 253 254 254 254 254
275 275 276 276 276 277 278 277 277 279 281 284 287 290 293 297 300 300 297 294 288 279 271 265 262 260 260 260 260 259 258 255 256 256 255 254 254 253 254 253 252 253 253
272 271 270 270 271 272 273 273 272 274 276 279 282 285 288 293 296 296 296 294 290 282 274 267 263 260 259 259 258 257 256 256 257 257 257 256 255 254 253 251 252 253 252
271 269 268 266 267 268 268 268 268 269 271 273 277 280 284 288 293 293 293 293 290 284 277 269 264 260 257 257 257 256 254 254 255 257 257 257 256 254 253 253 253 253 253
269 268 267 265 264 263 263 263 263 265 266 269 272 276 279 283 288 290 291 292 289 285 278 271 264 260 257 256 256 255 254 253 255 256 256 255 254 254 254 254 253 254 254
268 266 265 264 262 260 260 259 261 262 262 264 268 272 275 279 284 287 288 289 288 285 278 272 265 259 256 255 255 255 254 254 255 255 255 254 253 254 255 255 255 254 254
268 267 265 264 262 260 260 259 259 259 260 262 264 268 271 275 279 283 285 286 286 284 279 274 265 259 256 255 254 255 255 254 253 252 254 254 253 254 256 255 254 256 257
267 266 265 264 262 260 259 258 257 259 260 261 262 264 267 270 274 279 282 282 283 281 277 274 266 258 254 253 252 253 253 252 252 253 254 252 252 254 254 254 255 255 256
267 265 264 263 262 260 260 258 257 258 259 259 259 261 263 265 269 274 278 278 279 277 274 271 263 258 254 252 251 251 252 252 251 250 250 247 248 251 250 252 252 252 254
266 265 264 263 261 260 259 257 257 256 256 257 256 257 258 260 265 270 274 275 274 273 271 267 262 258 252 249 247 247 247 250 251 249 247 245 246 244 244 246 249 251 252
268 266 264 262 261 259 258 257 256 255 254 253 253 254 255 257 261 266 270 272 270 267 267 262 258 255 250 246 246 249 247 248 249 245 241 237 240 239 239 241 244 244 247
275 270 265 262 258 256 254 252 250 249 248 248 248 250 251 254 258 262 265 267 266 263 261 258 255 253 248 244 241 243 243 246 244 238 235 236 236 233 233 236 236 240 246
281 276 269 262 255 249 244 242 242 241 241 241 241 243 246 249 253 258 260 262 262 257 253 252 251 249 246 242 239 239 238 237 234 230 229 228 225 222 225 227 229 236 246
Height
5872 5870 5869 5867 5866 5865 5864 5864 5862 5861 5861 5860 5860 5860 5860 5861 5862 5862 5863 5864 5864 5865 5866 5867 5869 5870 5871 5873 5874 5875 5876 5878 5879 5880 5881 5882 5883 5884 5885 5886 5887 5888 5889
5866 5864 5863 5862 5860 5859 5858 5857 5856 5855 5854 5854 5853 5853 5853 5853 5853 5854 5854 5855 5855 5856 5858 5859 5861 5862 5864 5866 5868 5869 5871 5872 5874 5875 5876 5878 5879 5880 5881 5882 5883 5884 5886
5861 5859 5858 5857 5855 5854 5853 5852 5851 5849 5848 5847 5846 5846 5845 5845 5845 5845 5845 5845 5847 5847 5848 5850 5852 5854 5856 5857 5860 5862 5864 5866 5867 5869 5871 5873 5874 5875 5877 5878 5879 5880 5882
5856 5854 5853 5852 5851 5849 5848 5847 5845 5844 5842 5841 5839 5838 5838 5837 5837 5836 5837 5837 5838 5838 5840 5841 5843 5844 5846 5848 5851 5854 5856 5859 5861 5863 5865 5867 5868 5870 5872 5873 5874 5876 5877
5851 5850 5848 5847 5846 5845 5843 5842 5840 5839 5837 5835 5833 5831 5830 5830 5829 5829 5829 5829 5829 5830 5830 5832 5834 5835 5837 5839 5842 5845 5848 5851 5853 5856 5858 5860 5862 5864 5866 5867 5869 5870 5872
5846 5845 5843 5842 5841 5840 5838 5837 5835 5833 5831 5829 5827 5825 5824 5823 5822 5821 5821 5821 5821 5821 5820 5822 5825 5826 5828 5830 5833 5836 5839 5842 5845 5848 5850 5853 5855 5857 5859 5861 5863 5864 5866
5841 5840 5839 5838 5836 5835 5834 5832 5830 5828 5826 5823 5821 5820 5818 5816 5815 5814 5814 5813 5814 5814 5814 5815 5816 5818 5819 5821 5824 5826 5830 5833 5836 5839 5842 5845 5847 5849 5851 5853 5855 5857 5859
5835 5834 5833 5832 5831 5830 5828 5827 5825 5823 5820 5817 5815 5813 5812 5811 5808 5807 5806 5806 5806 5806 5807 5807 5808 5809 5811 5813 5815 5817 5820 5824 5827 5830 5833 5836 5839 5841 5844 5846 5848 5850 5852
5829 5828 5828 5827 5825 5824 5823 5821 5819 5817 5815 5812 5808 5806 5805 5804 5802 5800 5799 5798 5798 5799 5799 5800 5801 5803 5803 5805 5807 5809 5812 5814 5818 5821 5825 5828 5831 5833 5835 5838 5840 5842 5844
5823 5822 5821 5820 5819 5818 5817 5815 5813 5811 5809 5806 5803 5800 5798 5796 5794 5794 5792 5791 5791 5792 5793 5793 5794 5795 5796 5798 5799 5801 5803 5806 5809 5812 5816 5819 5822 5825 5827 5829 5831 5833 5836
5815 5815 5815 5814 5813 5812 5810 5808 5806 5804 5802 5800 5797 5794 5792 5789 5786 5786 5786 5784 5784 5785 5785 5786 5787 5789 5790 5791 5791 5794 5796 5798 5801 5804 5807 5810 5813 5816 5819 5821 5823 5825 5827
5807 5807 5807 5806 5805 5804 5803 5801 5799 5797 5795 5793 5791 5788 5786 5783 5780 5778 5778 5777 5777 5777 5778 5779 5780 5782 5783 5784 5786 5787 5789 5791 5794 5797 5799 5802 5804 5807 5810 5812 5814 5816 5818
5798 5798 5798 5797 5797 5796 5795 5793 5792 5790 5788 5786 5784 5782 5779 5777 5774 5772 5770 5770 5770 5770 5770 5772 5773 5774 5776 5777 5779 5780 5782 5784 5786 5789 5792 5794 5796 5799 5802 5804 5806 5808 5810
5789 5788 5788 5788 5787 5787 5786 5785 5784 5783 5781 5779 5777 5775 5773 5770 5768 5765 5764 5763 5763 5763 5763 5764 5765 5766 5768 5770 5772 5774 5775 5777 5780 5782 5784 5787 5789 5791 5794 5796 5798 5800 5802
5778 5778 5778 5778 5777 5777 5776 5776 5775 5774 5773 5772 5770 5768 5766 5764 5761 5759 5757 5756 5756 5755 5756 5756 5757 5759 5761 5763 5765 5766 5768 5770 5773 5775 5777 5779 5782 5784 5786 5788 5791 5793 5795
5766 5766 5766 5766 5766 5766 5766 5766 5766 5765 5764 5763 5762 5761 5759 5757 5755 5753 5751 5749 5748 5748 5748 5749 5750 5751 5753 5755 5757 5759 5761 5763 5766 5768 5770 5772 5774 5777 5779 5781 5784 5786 5788
5751 5752 5752 5753 5754 5755 5755 5755 5755 5755 5755 5754 5753 5752 5751 5750 5748 5746 5744 5743 5741 5740 5741 5742 5742 5743 5745 5747 5750 5752 5754 5757 5759 5761 5763 5765 5767 5769 5771 5774 5776 5779 5781
5735 5736 5737 5739 5740 5742 5743 5743 5744 5744 5744 5744 5744 5744 5743 5742 5741 5739 5738 5736 5734 5733 5734 5734 5735 5736 5738 5740 5742 5744 5747 5749 5752 5754 5756 5758 5760 5762 5764 5766 5769 5771 5774
5716 5718 5720 5722 5724 5727 5728 5730 5731 5732 5733 5734 5734 5734 5734 5734 5733 5732 5730 5729 5728 5727 5727 5727 5728 5729 5731 5733 5735 5738 5740 5742 5745 5747 5749 5751 5753 5756 5758 5760 5762 5764 5766
5696 5698 5701 5704 5707 5710 5713 5715 5718 5720 5721 5723 5724 5725 5725 5725 5725 5724 5723 5722 5721 5720 5720 5721 5722 5723 5724 5726 5728 5731 5733 5736 5738 5740 5743 5745 5747 5750 5752 5754 5756 5757 5759
5674 5677 5680 5684 5688 5692 5696 5700 5703 5706 5709 5711 5713 5714 5715 5716 5716 5716 5715 5715 5714 5714 5714 5714 5715 5716 5718 5720 5722 5725 5727 5729 5732 5734 5737 5739 5742 5743 5745 5748 5749 5751 5753
5649 5652 5656 5661 5666 5672 5677 5683 5687 5691 5695 5699 5701 5703 5705 5706 5707 5707 5707 5707 5707 5707 5707 5708 5709 5710 5712 5714 5716 5719 5721 5724 5726 5729 5731 5733 5736 5737 5739 5742 5743 5745 5748
5623 5626 5630 5636 5643 5649 5656 5663 5669 5675 5680 5685 5688 5692 5694 5696 5697 5698 5699 5699 5700 5700 5700 5702 5703 5704 5706 5707 5710 5713 5715 5718 5720 5722 5725 5727 5730 5732 5734 5736 5738 5740 5742
5600 5602 5605 5611 5618 5625 5633 5641 5650 5657 5664 5670 5675 5679 5682 5685 5687 5689 5690 5691 5692 5693 5693 5695 5696 5698 5699 5701 5704 5707 5709 5712 5714 5717 5719 5722 5724 5727 5729 5731 5733 5735 5737
5585 5585 5586 5590 5595 5602 5610 5619 5629 5638 5647 5655 5661 5666 5670 5674 5677 5679 5681 5683 5684 5685 5686 5688 5690 5692 5694 5696 5699 5701 5704 5707 5710 5712 5715 5718 5720 5722 5725 5727 5729 5731 5733
5573 5573 5574 5576 5579 5584 5590 5599 5609 5620 5630 5639 5646 5652 5658 5662 5666 5669 5672 5674 5677 5678 5680 5681 5684 5686 5688 5690 5693 5696 5699 5702 5705 5708 5710 5713 5716 5718 5721 5723 5725 5727 5729